Location: Équennes
(49.7375°N, 1.9622°E)
Time: 00:59:36
(UTC+00:00)

CZ-4 R/B - Pass Details

Date: 28 January 2023
Orbit: 526 x 586 km, 97.7° (Epoch: 31 March)

Event Time Altitude Azimuth Distance (km) Brightness Sun altitude
Rises 19:45:33 0° 196° (SSW) 2,812 5.0 -29.9°
Reaches altitude 10° 19:48:01 10° 210° (SSW) 1,913 4.3 -30.2°
Maximum altitude 19:51:28 25° 266° (W) 1,197 3.6 -30.8°
Drops below altitude 10° 19:54:56 10° 323° (NW) 1,908 4.6 -31.4°
Sets 19:57:23 0° 336° (NNW) 2,803 5.3 -31.7°
